CAPE
0 0 0 0 0 0 0 0 0 0 0 0 0 0 0 0 0 0 0 0 0 0 0 49 45 8 0 0 0 0 0 0 29 0 0 0 0 0 1 1674 2191 2329 2122 1856
0 0 0 0 0 0 0 0 0 0 0 0 0 0 0 0 0 0 0 0 0 0 0 17 98 60 15 0 0 0 4 32 43 118 10 0 0 0 44 1217 1982 2561 2027 1294
0 0 0 0 0 0 0 0 0 0 0 1 0 0 0 0 0 0 0 0 0 0 0 0 85 113 51 0 0 0 25 167 207 129 0 0 0 0 0 709 2005 2024 1413 914
0 0 0 0 0 0 0 0 0 0 0 0 0 0 0 0 0 0 0 0 0 0 0 0 1 105 71 34 36 0 0 18 295 590 285 65 164 294 830 1268 1425 1475 1143 126
0 0 0 0 0 0 0 0 0 0 0 0 0 0 0 0 0 0 0 0 0 0 0 0 24 89 137 112 76 2 47 230 341 392 735 873 509 595 981 1294 739 551 1464 117
0 0 0 0 0 0 0 0 0 0 0 0 0 0 0 0 0 0 1 2 0 0 8 28 80 131 98 114 100 186 329 388 634 1366 1694 1283 904 645 319 888 973 1195 1306 1308
7 0 0 0 0 0 0 0 0 0 0 0 0 0 0 0 0 0 0 0 0 0 0 2 95 137 81 110 203 71 135 723 550 405 371 221 353 399 225 121 87 83 63 76
3 2 0 0 0 0 0 0 0 0 0 0 0 0 0 9 21 6 4 15 40 5 0 4 60 118 139 172 244 282 233 117 21 8 0 0 0 0 0 0 0 0 0 0
7 0 1 0 0 0 0 0 0 0 0 14 7 39 32 10 1 0 1 53 98 97 130 75 72 84 130 56 31 0 0 0 0 0 0 0 0 0 0 0 0 0 0 0
51 8 3 1 0 0 0 0 0 0 0 0 0 7 1 0 0 0 74 56 25 19 70 48 84 90 53 12 0 0 0 0 0 0 0 0 0 0 0 0 0 0 0 0
50 0 1 36 27 0 0 0 0 19 22 0 0 29 12 8 16 0 0 9 13 0 0 0 0 0 0 0 0 0 0 0 0 0 0 0 0 0 0 0 0 0 0 0
12 0 0 0 52 46 0 0 0 0 17 4 0 7 0 1 0 0 0 3 0 0 0 0 0 0 0 0 0 0 0 0 0 0 0 0 0 0 0 0 0 0 0 0
3 3 0 0 0 4 1 1 4 3 64 3 10 0 0 0 0 0 0 0 0 0 0 0 0 0 0 0 0 0 0 0 0 0 0 0 0 0 0 0 0 0 0 0
10 3 0 0 0 3 0 0 21 3 16 16 11 4 2 0 0 0 4 25 0 0 0 0 0 0 0 0 0 0 0 0 0 0 0 0 0 0 0 0 0 0 0 0
13 1 8 26 42 9 1 0 62 22 13 9 28 11 2 0 0 1 5 8 0 0 0 0 0 0 0 0 0 0 0 0 0 0 0 0 0 0 0 0 0 0 0 0
6 11 0 5 3 11 7 75 98 62 45 9 7 12 0 0 0 0 0 0 0 0 0 0 0 0 0 0 0 0 0 0 0 0 0 0 0 0 0 0 0 0 0 0
4 17 0 0 0 0 2 36 70 58 2 0 17 13 0 0 0 0 6 0 0 0 0 0 0 0 0 0 0 0 0 0 0 0 0 0 0 0 0 0 0 0 0 0
11 24 0 0 4 2 0 0 40 18 31 57 36 2 0 0 0 0 0 0 0 0 0 0 0 0 0 0 0 0 0 0 0 0 0 0 0 0 0 0 0 0 0 0
2 1 0 0 0 0 2 0 0 0 4 7 0 0 0 0 0 0 0 0 0 0 0 0 0 0 0 0 0 0 0 0 0 0 0 0 0 0 0 0 0 0 0 0
0 0 0 0 0 0 5 0 0 0 0 0 0 0 0 0 0 0 0 0 0 0 0 0 0 0 0 0 0 0 0 0 0 0 0 0 0 0 0 0 0 0 0 0
0 0 0 0 0 0 7 4 2 0 1 0 0 0 0 0 0 0 0 0 0 0 0 0 0 0 0 0 0 0 0 0 0 0 0 0 0 0 0 0 0 0 0 0
0 0 0 0 0 3 2 0 0 0 0 0 0 0 0 0 0 0 0 0 0 0 0 0 0 0 0 0 0 0 0 0 0 0 0 0 0 0 0 0 0 0 0 0
1 0 2 0 2 0 0 0 0 0 0 0 0 0 0 0 0 0 0 0 0 0 0 0 0 0 0 0 0 1 1 0 0 0 0 0 0 0 0 0 0 0 0 0
9 0 2 0 0 0 0 0 0 0 0 0 0 0 0 0 0 0 0 0 1 0 1 0 0 1 1 0 1 1 0 0 0 0 0 0 0 0 0 0 0 0 0 0
10 1 0 1 0 0 0 0 0 0 0 0 0 0 0 0 0 0 1 1 1 0 0 0 1 1 1 0 0 0 0 0 0 0 0 0 0 0 0 0 0 0 0 0
0 0 0 2 0 0 0 0 0 0 0 0 0 0 0 0 0 0 1 0 0 0 1 0 1 0 0 0 0 0 0 0 0 0 0 1 0 0 0 0 0 0 0 0
CIN
0 0 0 0 0 0 0 0 0 0 0 0 0 0 0 0 0 0 0 0 0 0 0 -73 -63 -136 -1 0 0 0 0 0 -322 -24 0 0 0 0 -0 -24 -9 -32 -52 -30
0 0 0 0 0 0 0 0 0 0 0 0 0 0 0 0 0 0 0 0 0 0 0 -76 -91 -116 -178 0 0 0 -128 -247 -314 -319 -383 0 0 0 -112 -36 -15 -28 -45 -48
0 0 0 0 0 0 0 0 0 0 0 -4 0 0 0 0 0 0 0 0 0 0 0 0 -75 -93 -162 0 0 0 -238 -193 -205 -296 0 0 0 0 0 -7 -10 -60 -49 -116
0 0 0 0 0 0 0 0 0 0 0 0 0 0 0 0 0 0 0 0 0 0 0 0 -13 -128 -171 -186 -169 -0 0 -35 -149 -133 -181 -216 -150 -55 -8 -14 -19 -36 -61 -98
0 0 0 0 0 0 0 0 0 0 0 0 0 0 0 0 0 0 -4 0 0 0 0 0 -66 -55 -79 -115 -180 -203 -197 -135 -127 -106 -60 -59 -54 -49 -65 -53 -54 -66 -61 -94
0 0 0 0 0 0 0 0 0 0 0 0 0 0 0 0 0 0 -52 -58 0 0 -144 -99 -91 -116 -140 -252 -221 -184 -129 -121 -113 -73 -18 -31 -75 -78 -89 -75 -44 -23 -33 -42
-6 0 0 0 0 0 0 0 0 0 0 0 0 0 0 0 0 -10 0 0 -25 0 0 -71 -156 -237 -258 -199 -137 -62 -115 -78 -115 -141 -170 -199 -171 -216 -225 -243 -259 -219 -184 -177
-13 -1 0 0 0 0 0 0 0 0 0 0 0 0 0 -129 -224 -263 -254 -203 -157 -147 0 -271 -306 -330 -296 -251 -185 -163 -159 -216 -294 -349 0 0 0 0 0 0 0 0 0 0
-15 0 -1 0 0 0 0 0 0 0 -2 -8 -12 -87 -155 -205 -237 0 -44 -149 -160 -175 -300 -328 -342 -418 -321 -357 -340 -0 0 0 0 0 0 0 0 0 0 0 0 0 0 0
-20 -7 -5 -2 0 0 0 0 0 0 0 0 0 -33 -24 -34 -138 0 -116 -142 -197 -289 -312 -354 -357 -338 -341 -316 0 0 0 0 0 0 0 0 0 0 0 0 0 0 0 0
-10 0 -12 -61 -19 0 0 0 0 -17 -16 0 0 -40 -56 -73 -61 0 0 -174 -197 0 0 0 0 0 0 0 0 0 0 0 0 0 0 0 0 0 0 0 0 0 0 0
-17 0 0 0 -67 -45 0 0 -5 0 -19 -44 -2 -76 0 -46 0 0 -5 -61 -9 0 0 0 0 0 0 0 0 0 0 0 0 0 0 0 0 0 0 0 0 0 0 0
-17 -1 0 0 0 -29 -1 -2 -23 -22 -16 -17 -23 0 0 0 0 0 0 0 0 0 0 0 0 0 0 0 0 0 0 0 0 0 0 0 0 0 0 0 0 0 0 0
-16 -2 0 0 0 -5 0 -3 -15 -19 -10 -26 -19 -54 -51 0 0 0 -39 -16 -7 0 0 0 0 0 0 0 0 0 0 0 0 0 0 0 0 0 0 0 0 0 0 0
-0 -3 -35 -23 -64 -61 -4 -4 -26 -23 -40 -36 -68 -72 -160 0 0 -1 -25 -11 0 0 0 0 0 0 0 0 0 0 0 0 0 0 0 0 0 0 0 0 0 0 0 0
-2 -10 0 -24 -95 -79 -51 -30 -24 -31 -49 -71 -6 -42 0 0 0 -0 -1 0 0 0 0 0 0 0 0 0 0 0 0 0 0 0 0 0 0 0 0 0 0 0 0 0
-1 -6 0 0 0 0 -32 -81 -29 -34 -4 -0 -25 -37 0 0 0 0 -7 0 0 0 0 0 0 0 0 0 0 0 0 0 0 0 0 0 0 0 0 0 0 0 0 0
-2 -4 0 0 0 -0 0 0 -40 -37 -26 -45 -25 -2 0 0 0 0 0 0 0 0 0 0 0 0 0 0 0 0 0 0 0 0 0 0 0 0 0 0 0 0 0 0
-6 -2 0 0 0 0 -3 -0 0 0 -1 -19 0 0 0 0 0 0 0 0 0 0 0 0 0 0 0 0 0 0 0 0 0 0 0 0 0 0 0 0 0 0 0 0
0 0 0 0 0 -2 -3 0 0 -1 0 0 0 0 0 0 0 0 0 0 0 0 0 0 0 0 0 0 0 0 0 0 0 0 0 0 0 -0 0 0 0 0 0 0
0 0 0 -12 0 -2 -17 -36 -5 0 0 0 0 0 0 0 0 0 0 0 0 0 0 0 0 0 0 0 0 0 0 0 0 0 0 0 0 -1 0 0 0 0 0 0
0 0 0 0 0 -5 -23 -18 0 0 0 0 0 0 0 0 0 0 0 0 0 0 0 0 0 0 0 0 0 0 0 0 0 0 0 0 0 0 0 0 0 0 0 0
0 0 0 0 0 0 0 0 0 0 0 0 0 0 0 0 0 0 0 0 0 0 0 0 0 0 0 -1 0 0 0 0 0 0 0 0 0 0 0 0 0 0 0 0
-1 0 -0 0 -0 0 0 0 0 0 0 0 0 0 0 0 0 0 0 0 0 0 0 0 0 0 0 -1 0 0 0 0 0 0 0 0 0 0 0 0 0 0 0 0
-6 -12 0 0 0 0 0 0 0 0 0 0 0 0 0 0 0 0 0 0 0 0 -0 -0 -0 -0 0 0 0 0 -0 0 0 0 0 0 0 0 0 0 0 0 0 0
0 0 0 0 0 0 0 0 0 0 0 0 0 0 0 0 0 0 0 0 -0 -0 -0 -0 0 0 0 0 0 0 0 0 0 0 0 0 0 0 0 0 0 0 0 0
Wind_Speed
23 25 28 26 27 28 32 34 29 27 29 25 30 35 32 28 31 34 40 39 42 37 33 21 20 19 14 13 13 12 14 16 17 21 26 32 30 27 42 30 18 10 11 12
23 30 30 26 29 31 36 37 39 34 30 24 23 29 29 28 26 26 30 35 40 42 33 25 23 21 20 17 16 15 14 13 17 21 24 28 26 35 33 38 9 6 7 11
29 28 27 31 31 33 36 41 37 32 27 19 20 27 27 29 28 26 25 25 29 34 39 31 22 23 24 22 20 16 11 10 11 12 13 12 14 14 30 34 8 7 7 8
34 32 24 28 37 29 36 30 35 33 28 29 23 36 29 27 28 28 30 24 26 32 34 36 28 25 26 23 20 22 19 14 10 5 6 10 13 13 13 15 8 7 7 10
31 27 36 31 30 30 34 26 25 31 33 28 31 32 28 24 22 18 18 17 24 29 26 28 24 23 23 25 20 18 17 17 17 16 14 12 13 18 17 15 13 14 11 15
35 29 29 37 24 27 31 27 21 20 30 37 28 33 36 32 25 17 17 16 18 15 16 16 18 22 27 23 19 15 17 18 18 18 16 15 15 14 17 17 15 16 16 18
30 38 34 30 32 24 28 24 28 28 27 30 26 26 28 19 12 11 13 11 13 12 12 11 14 13 16 17 19 24 21 20 18 17 15 16 16 15 18 19 20 19 20 18
35 37 30 29 32 26 27 24 26 26 24 26 23 33 36 14 12 12 12 15 16 9 6 7 7 6 9 10 12 15 17 14 14 15 17 16 16 16 17 16 16 17 17 19
27 41 31 35 26 21 24 30 23 23 20 22 18 13 14 9 7 9 12 15 10 9 8 5 8 8 9 8 12 13 20 15 15 17 18 21 20 19 20 19 19 19 19 22
27 28 36 36 21 38 22 18 25 28 33 31 24 19 21 15 15 14 11 7 8 8 7 7 8 9 9 10 11 11 18 14 15 17 18 19 20 20 21 23 25 26 27 27
27 21 29 28 27 26 27 25 29 23 25 34 25 18 19 15 10 9 11 9 5 7 8 8 10 10 10 11 13 12 11 14 14 16 17 18 20 21 23 24 26 28 29 31
25 23 36 35 34 31 32 29 23 27 28 20 20 21 19 16 5 6 14 8 5 9 13 14 14 14 13 12 13 12 14 15 17 17 17 19 21 23 25 27 28 30 32 32
39 25 25 37 36 41 28 31 26 23 24 31 29 24 17 11 8 2 3 5 4 11 10 12 12 13 14 15 15 15 16 18 20 21 22 23 25 27 28 30 30 30 32 34
30 29 30 31 31 27 28 32 14 19 31 24 26 16 11 7 7 10 10 9 6 10 11 12 12 13 14 16 17 18 20 21 23 25 26 26 27 28 28 29 32 34 36 39
28 33 34 27 22 25 21 24 16 21 20 27 23 14 10 7 6 1 7 15 14 13 11 10 13 14 16 19 21 23 24 25 27 28 29 29 29 27 30 33 35 37 38 39
35 24 24 30 25 22 23 19 21 15 22 19 11 12 6 3 6 8 2 4 8 11 11 13 15 17 19 22 24 25 26 28 29 30 31 29 31 32 33 34 35 35 37 40
35 23 24 30 28 25 28 23 14 7 11 25 5 6 5 5 2 4 3 4 8 10 12 15 17 20 23 25 25 26 28 29 30 31 30 30 30 32 34 34 34 37 39 38
39 29 16 16 12 18 27 18 11 5 0 2 4 6 7 8 10 12 8 7 10 13 15 18 21 24 24 25 27 28 29 30 31 31 30 31 33 34 34 35 36 36 36 38
20 23 19 16 15 7 4 10 6 7 3 2 16 18 13 10 10 12 9 11 13 16 19 21 23 24 26 28 29 30 31 31 30 31 32 33 33 33 34 35 35 36 37 38
11 11 10 11 10 12 8 10 10 6 3 5 10 10 11 3 6 9 11 14 17 20 22 24 26 27 29 30 31 31 31 30 31 32 32 32 31 32 33 34 33 34 37 37
19 15 12 11 15 14 9 5 9 16 7 7 7 8 8 8 9 11 14 18 20 22 25 27 28 29 29 31 32 32 32 31 31 31 31 30 30 31 30 30 32 35 35 33
16 16 20 18 12 17 15 9 7 4 7 6 7 8 10 11 13 15 18 21 23 26 28 29 30 30 31 33 32 31 29 30 30 30 29 29 29 29 27 30 32 31 32 31
9 24 17 13 6 3 8 9 9 8 7 7 9 9 11 13 16 19 21 23 25 27 29 30 30 32 32 31 30 29 29 29 29 28 28 27 27 26 27 28 30 31 30 28
1 1 7 3 3 7 9 10 10 8 8 9 10 12 13 15 18 20 22 24 26 28 29 30 30 31 31 30 28 26 27 28 28 27 25 24 25 25 25 27 26 23 23 26
6 4 7 10 7 9 9 9 10 10 10 11 12 14 16 17 19 21 23 25 26 27 28 28 29 29 29 28 26 26 26 26 25 23 22 23 24 23 24 25 15 18 18 9
1 4 2 3 2 7 7 8 8 10 10 12 14 16 17 19 20 22 23 25 25 26 27 28 28 28 27 26 26 26 25 23 23 22 22 22 22 23 23 13 11 17 12 8
Wind_Direction
238 247 245 248 254 263 262 261 264 265 266 264 264 264 267 270 268 268 267 268 263 266 268 253 250 259 267 270 276 285 283 278 268 271 265 263 280 297 276 251 258 238 250 260
245 237 252 257 255 256 254 257 257 264 269 265 269 267 271 272 271 268 270 270 267 265 270 257 251 255 254 260 270 277 283 283 275 271 281 279 273 272 285 236 203 252 255 256
236 258 249 252 252 250 251 250 256 265 274 273 271 274 275 276 278 278 276 271 272 273 266 267 256 248 254 256 264 269 271 270 284 286 283 286 286 280 272 230 272 308 275 282
250 251 248 247 248 247 249 252 254 263 267 267 278 268 275 280 280 282 277 276 273 275 273 268 262 253 252 254 263 265 271 273 273 279 282 266 273 281 282 297 305 282 284 293
245 244 245 245 248 247 251 254 255 258 262 274 267 276 281 287 286 296 312 307 292 279 281 271 257 246 244 257 261 259 266 268 277 287 293 300 292 294 303 307 297 302 292 299
250 253 250 247 248 247 250 255 254 258 261 262 269 272 274 276 281 292 307 309 313 315 310 294 280 256 266 271 257 265 271 273 281 281 287 294 289 293 301 308 312 302 301 303
249 246 248 247 246 244 244 243 247 252 253 264 269 274 278 289 292 293 309 314 319 314 312 318 297 289 281 281 281 275 277 279 286 291 298 296 292 297 296 302 309 307 306 310
245 245 240 243 244 239 240 236 245 248 257 268 273 270 274 289 297 305 317 314 312 311 311 353 342 342 322 313 309 308 302 294 291 294 300 306 309 309 311 315 321 322 320 315
245 245 246 242 241 239 238 239 246 257 267 270 276 296 312 313 319 343 328 311 340 324 311 358 2 340 348 345 320 304 307 300 311 305 307 308 310 311 313 312 314 316 313 315
245 251 236 236 245 236 242 239 238 246 250 259 265 283 280 292 295 305 328 337 351 356 324 359 10 15 8 358 339 336 317 307 311 315 314 313 312 315 310 305 307 309 306 308
245 250 237 243 238 232 235 233 237 250 258 250 260 269 280 284 312 324 305 320 23 9 357 14 33 11 7 6 7 3 351 326 322 317 315 316 314 313 310 307 307 309 309 309
241 242 230 233 237 239 234 235 238 245 251 265 261 265 283 285 319 12 24 260 27 61 74 67 55 44 28 22 14 12 358 352 346 330 324 320 317 316 312 311 313 312 309 312
221 235 231 225 229 225 235 233 241 248 256 243 246 256 295 314 299 111 88 335 51 78 66 58 50 37 22 16 9 0 350 344 337 331 323 322 318 314 311 309 310 316 314 314
227 229 224 226 214 232 228 227 226 240 238 245 251 265 289 318 320 290 263 255 241 75 61 42 22 10 359 350 348 344 341 340 334 329 326 324 323 320 317 318 316 314 315 313
237 223 221 235 237 233 237 234 238 243 254 254 255 259 269 306 31 4 227 217 99 73 49 26 10 2 349 341 337 330 328 327 326 322 320 320 321 323 320 317 316 315 316 317
215 218 230 222 232 236 236 248 242 252 248 264 252 257 245 61 70 228 114 86 44 34 17 10 4 350 343 339 332 328 327 325 323 320 318 321 320 321 321 320 320 321 321 321
211 219 219 224 227 236 233 234 252 243 261 236 276 245 137 103 60 59 93 58 29 15 9 356 344 342 338 336 337 332 326 325 323 322 323 323 323 321 321 322 323 322 321 324
207 214 223 219 201 230 229 227 252 246 120 38 84 98 114 100 56 48 22 31 15 8 353 345 338 336 339 337 333 329 327 324 322 321 322 322 321 319 321 322 322 324 326 326
214 214 217 207 231 219 206 175 118 121 43 81 101 95 88 80 58 26 29 0 350 349 343 340 339 341 336 332 329 327 326 324 323 322 321 320 320 322 321 322 324 325 325 327
191 213 212 197 213 217 232 125 158 123 33 13 64 86 97 23 354 341 350 348 340 340 339 335 333 333 330 330 329 327 325 325 323 321 320 319 322 322 322 321 324 326 327 331
212 221 216 222 227 223 244 156 174 245 280 45 31 31 31 9 355 352 343 337 338 335 333 330 329 329 333 330 330 328 325 324 321 320 320 322 323 324 325 320 322 326 337 343
225 224 214 220 214 221 246 252 254 89 64 42 28 17 16 5 352 342 336 335 334 332 330 329 327 327 330 331 330 330 330 324 322 322 321 323 325 321 309 318 324 343 349 356
229 201 212 227 221 60 58 85 87 82 61 33 30 12 4 354 346 343 340 337 334 332 329 328 327 328 332 334 336 333 331 329 323 320 318 318 312 307 312 312 341 351 2 13
186 206 99 131 96 80 73 71 66 55 46 31 21 17 9 0 354 351 349 345 340 336 332 333 332 332 334 337 338 340 335 329 319 313 305 302 307 302 308 321 2 19 25 20
268 271 113 97 97 71 59 64 65 55 42 33 21 16 13 9 2 360 357 355 350 346 344 344 340 340 339 342 342 337 332 328 319 306 296 299 300 298 300 306 37 36 37 51
252 158 168 171 298 85 69 59 51 47 38 32 23 15 11 10 8 6 2 360 357 353 351 351 350 352 351 346 340 337 322 319 310 296 293 296 297 298 299 307 55 44 57 270